www.pogodaiklimat.ru

Погода и климат >> Архив погоды >> Корея >> Куми


ПОГОДА в Куми

  • Прогноз погоды в Куми
  • Монитор погоды в Куми

АРХИВ ПОГОДЫ в Куми

Время (UTC), дата Ветер
(напр.,м/с)
 
Видим.   Явления Облачность Т
(С)
Тd
(С)
f
(%)
Тe
(С)
Тes
(С)
Комфортность P
(гПа)
Po
(гПа)
Тmin
(С)
Tmax
(С)
R
(мм)
R24
(мм)
S
(см)
06 12.06 СВ 1 20 км ясно +27.3 +12.8 41 +29 +46 жарко 1009.3 1003.7
09 12.06 СЗ 1 20 км ясно +26.9 +12.5 41 +28 +31 жарко 1008.5 1002.9
12 12.06 штиль 0 20 км ясно +22.6 +14.9 62 +26 +26 жарко 1009.8 1004.2 +28.0
15 12.06 З 2 16 км 3/0
[]
+19.3 +16.8 85 +22 +22 комфорт 1011.1 1005.4
18 12.06 9000 м 3/0
[]
+17.1 +16.7 97 1011.5 1005.7
21 12.06 З 1 3900 м ясно +16.2 +16.0 99 +17 +18 1012.1 1006.3
00 13.06 С 1 8000 м ясно +21.9 +17.8 78 +27 +39 душно 1012.0 1006.3 +15.9
03 13.06 В 1 15 км ясно +27.3 +17.1 54 +31 +56 опасность
солнечного
удара
1010.2 1004.6
06 13.06 З 2 20 км 1/0
[]
+29.0 +10.1 31 +29 +43 жарко 1007.6 1002.1
09 13.06 Ю 2 20 км 8/0
[]
+28.5 +13.5 40 +30 +32 жарко 1006.9 1001.4
12 13.06 ЮВ 1 20 км 8/0
[]
+25.1 +14.5 52 +28 +28 жарко 1008.4 1002.8 +29.7
15 13.06 З 1 19 км 8/0
[]
+20.7 +17.1 80 +25 +25 комфорт 1009.0 1003.3
18 13.06 З 1 20 км 9/0
[]
+18.4 +16.1 86 +20 +20 1007.8 1002.1
21 13.06 З 1 16 км 10//
[]
+18.3 +16.6 90 +20 +20 1007.9 1002.2
00 14.06 штиль 0 12 км ?/? +20.0 +16.6 81 +22 +22 комфорт 1007.3 1001.6 +17.9
03 14.06 С 1 16 км 9/0
[]
+23.0 +14.5 59 +27 +40 душно 1006.3 1000.7
06 14.06 В 1 13 км 9/0
[]
+24.3 +16.0 60 +28 +37 душно 1004.5 998.9
09 14.06 ЮЗ 1 11 км 10/1 1000 м
[]
+23.4 +18.0 72 +29 +30 душно 1003.4 997.8
12 14.06 В 2 13 км 8/0
[]
+22.1 +16.1 69 +26 +26 душно 1003.4 997.8 +24.9 0.0
15 14.06 З 1 8000 м 10/8 1000 м
[]
+19.5 +18.8 96 +23 +23 комфорт 1003.2 997.6
18 14.06 5000 м н/о +18.0 +17.8 99 +19 +19 1001.2 995.5
21 14.06 СЗ 1 3300 м 8/1 600 м
[]
+17.4 +17.2 99 +18 +19 1001.0 995.3
00 15.06 С 4 7000 м 8/0
[]
+22.4 +17.9 76 +27 +32 душно 1001.0 995.4 +17.0 0.0
03 15.06 С 1 16 км 8/3 1000 м
[]
+25.4 +16.5 58 +29 +40 душно 999.0 993.5
06 15.06 СЗ 1 19 км 8/6 1500 м
[]
+26.6 +16.5 54 +30 +35 душно 996.7 991.2
09 15.06 З 3 20 км 3/1
[]
+27.2 +14.5 46 +30 +31 душно 995.8 990.3
12 15.06 СЗ 2 19 км 5/0
[]
+23.3 +15.6 62 +28 +28 душно 999.2 993.6
15 15.06 З 1 20 км 4/1 1000 м
[]
+18.6 +16.2 86 +21 +21 комфорт 1001.7 996.0
18 15.06 20 км н/о +18.0 +16.8 93 +19 +19 1002.5 996.8
21 15.06 штиль 0 9000 м 1/1
[]
+16.5 +16.3 99 +16 +17 1004.9 999.1
00 16.06 З 2 18 км ясно +21.1 +16.0 73 +24 +35 комфорт 1006.5 1000.8 +16.0 0.0
03 16.06 20 км н/о +26.5 +14.9 49 +29 +41 жарко 1006.6 1001.0
06 16.06 ЮЗ 1 20 км 8/4 2000 м
[]
+26.6 +12.6 42 +28 +35 жарко 1006.4 1000.8
09 16.06 В 1 20 км 9/3 2000 м
[]
+26.7 +14.1 46 +29 +30 жарко 1006.8 1001.2
12 16.06 В 3 20 км 8/1 1500 м
[]
+21.3 +16.4 74 +25 +25 комфорт 1009.8 1004.1
15 16.06 ЮВ 2 18 км 5/5 1000 м
[]
+20.8 +17.7 82 +25 +25 комфорт 1010.9 1005.2
18 16.06 18 км н/о +20.3 +18.0 87 +25 +25 комфорт 1011.4 1005.7
21 16.06 штиль 0 13 км 10// 600 м
[]
+19.9 +18.7 93 +23 +23 комфорт 1012.4 1006.7
00 17.06 С 2 15 км 8/8 600 м
[]
+22.2 +17.7 76 +27 +29 душно 1012.8 1007.1 +19.3 0.0
03 17.06 С 2 19 км 4/3 1000 м
[]
+26.3 +15.9 53 +30 +43 душно 1011.7 1006.1
06 17.06 СЗ 1 20 км 4/0
[]
+28.2 +14.0 42 +30 +44 жарко 1010.3 1004.8
09 17.06 СЗ 2 20 км 8/0
[]
+27.7 +15.3 47 +31 +32 душно 1009.9 1004.4
12 17.06 З 3 20 км 6/0
[]
+24.2 +15.4 58 +27 +27 жарко 1011.4 1005.8 +29.5 0.0
15 17.06 штиль 0 20 км 4/0
[]
+21.0 +16.8 77 +24 +24 комфорт 1011.9 1006.2
18 17.06 З 1 20 км 8/0
[]
+18.6 +17.2 92 +21 +21 комфорт 1011.5 1005.8
21 17.06 З 1 19 км 8/0
[]
+17.9 +17.2 96 +19 +19 1011.6 1005.9
00 18.06 С 2 8000 м ?/? +18.9 +18.5 98 +21 +21 комфорт 1012.2 1006.5 +17.7 1
03 18.06 ЮВ 1 19 км 4/1 1500 м
[]
+24.6 +16.8 62 +28 +47 душно 1010.7 1005.1
06 18.06 СЗ 2 18 км 8/8 1000 м
[]
+27.6 +18.0 56 +32 +35 очень
душно
1008.9 1003.4
09 18.06 СЗ 1 11 км 10/8 1000 м
[]
+24.1 +20.4 80 +30 +30 очень
душно
1008.9 1003.3
12 18.06 З 3 10 км 8/0
[]
+22.3 +19.6 85 +28 +28 душно 1009.9 1004.3 +28.4 0.0
15 18.06 З 1 9000 м 1/1
[]
+20.7 +19.1 91 +26 +26 душно 1009.5 1003.8
18 18.06 З 1 6000 м 8/0
[]
+19.3 +18.9 98 +23 +23 комфорт 1008.1 1002.4
21 18.06 З 1 4900 м 8/3 1000 м
[]
+19.4 +19.2 99 +23 +23 комфорт 1008.5 1002.8
00 19.06 СЗ 2 10 км 9/9 1000 м
[]
+22.8 +19.7 83 +29 +30 очень
душно
1008.4 1002.8 +18.9 0.0
03 19.06 З 2 10 км 9// 600 м
[]
+24.5 +18.6 70 +29 +41 душно 1007.6 1002.0

 

Местоположение метеостанции Куми (Корея): широта 36.12 долгота 128.32 высота над уровнем моря 47 м.

В архиве по умолчанию представлена погода в Куми за последнюю неделю. Архивные данные за месяц целиком и за предыдущие месяцы, начиная с января 2011 года, Вы можете получить, выбрав интересующий диапазон дат из раскрывающегося списка и нажав кнопку "Ввод!".


*Определитесь, кто Вы:
робот инопланетянин человек

Внимание! Время в таблицах - всемирное. Для получения местного времени необходимо прибавить поправку, которая равна 9 ч.

Смотрите также архив погоды в соседних городах и на ближайших метеорологических станциях:

Погода на Чупунджнеоне (Корея) (31 км)
Погода в Санджу (Корея) (35 км)
Погода в Тэгу (Корея) (37 км)
Погода в Андоне (Корея) (61 км)
Погода в Чинхэгу (Корея) (63 км)
Погода в Тэджоне (Корея) (90 км)
Погода в Пхохане (Корея) (96 км)
Погода в Чхонджу (Корея) (96 км)
Погода в Чинджу (Корея) (104 км)
Погода в Масане (Корея) (107 км)

Пояснения к столбцам:

Ветер - указаны скорость ветра в м/с - средняя за 10 мин, порывы в срок и между сроками (в фигурных скобках) и направление, откуда дует ветер: С - северный, СВ - северо-восточный, В - восточный, ЮВ - юго-восточный, Ю - южный, ЮЗ - юго-западный, З - западный, СЗ - северо-западный.
Видимость - горизонтальная дальность видимости в метрах или километрах. При видимости от 1 до 10 км при отсутствии осадков обычно наблюдается дымка, при ухудшении видимости до 1 км и менее - туман. В сухую погоду видимость может ухудшаться дымом, пылью или мглою.
Явления - указаны атмосферные явления, наблюдавшиеся в срок или в последний час перед сроком; фигурными скобками обозначены явления, наблюдавшиеся между сроками (за 1-3 часа до срока); квадратными скобками обозначены град или гололедные отложения с указанием их диаметра в мм.
Облачность - указаны через наклонную черту общая и нижняя облачность в баллах и высота нижней границы облаков в метрах; квадратными скобками обозначены формы облаков: Ci - перистые, Cs - перисто-слоистые, Cc - перисто-кучевые, Ac - высококучевые, As - высокослоистые, Sc - слоисто-кучевые, Ns - слоисто-дождевые, Cu - кучевые, Cb - кучево-дождевые. Подробнее классификацию облаков см. в Атласе облаков (PDF).
T - Температура воздуха - температура, измеренная на высоте 2 м над землей.
Td - Температура точки росы - температура, при понижении до которой содержащийся в воздухе водяной пар достигнет насыщения.
f - Относительная влажность воздуха - влажноcть воздуха, измеренная на высоте 2 м над землей.
Te - Эффективная температура - температура, которую ощущает одетый по сезону человек в тени. Характеристика душности погоды. При расчете учитывается влияние влажности воздуха и скорости ветра на теплоощущения человека.
Tes - Эффективная температура на солнце - температура, которую ощущает человек, с поправкой на солнечный нагрев. Характеристика знойности погоды. Зависит от высоты солнца над горизонтом, облачности и скорости ветра. Ночью, в пасмурную погоду, а также при ветре 12 м/с и более поправка равна нулю.
P - Атмосферное давление - приведенное к уровню моря атмосферное давление.
Po - Атмосферное давление - измеренное на уровне метеостанции атмосферное давление.
Tmin - Минимальная температура - минимум температуры воздуха на высоте 2 м над землей.
Tmax - Максимальная температура - максимум температуры воздуха на высоте 2 м над землей.
R - Количество осадков - Количество выпавших осадков за период времени, мм. При наведении курсора мыши на число - период времени, за который выпало указанное количество осадков.
R24 - Количество осадков - Количество выпавших осадков за 24 часа, мм.
S - Снежный покров - Высота снежного покрова, см. При наведении курсора мыши на число - состояние снежного покрова и степень покрытия местности в баллах.